Flag for U.S.A. Weather past 2 weeks in Vincennes, Indiana, U.S.A.

Now
79 °F

Passing clouds.


Feels Like: 82 °F
Forecast: 65 / 79 °F
Wind: 8 mph from Southwest

Location: Lawrenceville-Vincennes International Airport

Current Time: Jul 1, 2015 at 4:16:48 PM

Latest Report: Jul 1, 2015 at 3:53 PM


Visibility: 7 mi

Pressure: 29.88 "Hg

Humidity: 77%

Dew point: 71 °F

Location of VincennesLocation

Historic Weather in Vincennes — Graph

°F

Vincennes temperature yesterday

Maximum temperature yesterday: 84 °F (at 4:53 PM)
Minimum temperature yesterday: 64 °F (at 4:53 AM)
Average temperature yesterday: 75 °F

Past Weeks' High & Low Weather Summary

 TemperatureHumidityPressure
High87 °F (Jun 22, 3:53 PM)100% (Jun 22, 4:53 AM)30.19 "Hg (Jun 22, 4:53 AM)
Low57 °F (Jun 28, 6:53 AM)44% (Jun 27, 5:53 PM)29.73 "Hg (Jun 20, 4:53 AM)
Average75 °F81%29.94 "Hg
* Reported Jun 16 2:53 PM — Jul 1 2:53 PM, Vincennes, Weather by CustomWeather, © 2015

Note: Actual official high and low records may vary slightly from our data, if they occured in-between our weather recording intervals... More about our weather records

Advertising

Vincennes weather history for previous 24 hours

 ConditionsComfort  
Time TempWeatherWind HumidityBarometerVisibility
2:53 PM
Wed, Jul 1
75 °FBroken clouds.7 mph85%29.89 "Hg6 mi
2:02 PM76 °FFog.8 mph88%29.92 "Hg4 mi
1:53 PM76 °FFog.7 mph88%29.91 "Hg4 mi
12:53 PM75 °FMostly cloudy.10 mph85%29.93 "Hg6 mi
11:53 AM76 °FHaze.7 mph80%29.93 "Hg6 mi
10:53 AM74 °FScattered clouds.6 mph85%29.92 "Hg6 mi
9:53 AM72 °FFog.3 mph91%29.91 "Hg4 mi
8:53 AM70 °FFog.No wind93%29.91 "Hg4 mi
7:53 AM68 °FFog.No wind96%29.90 "Hg2 mi
7:00 AM66 °FFog.No wind100%29.90 "Hg1 mi
5:53 AM67 °FFog.No wind97%29.87 "Hg0 mi
4:53 AM68 °FFog.No wind96%29.88 "Hg4 mi
3:53 AM68 °FFog.No wind96%29.88 "Hg5 mi
2:53 AM69 °FFog.3 mph96%29.88 "Hg4 mi
1:53 AM71 °FPassing clouds.No wind93%29.88 "Hg7 mi
11:53 PM
Tue, Jun 30
74 °FMostly cloudy.5 mph85%29.87 "Hg7 mi
10:53 PM77 °FMostly cloudy.5 mph71%29.86 "Hg9 mi
10:02 PM74 °FThundershowers. Sunny.8 mph79%29.85 "Hg9 mi
9:53 PM74 °FPassing clouds.7 mph82%29.84 "Hg8 mi
8:53 PM77 °FScattered clouds.7 mph71%29.83 "Hg9 mi
7:53 PM79 °FSunny.8 mph67%29.82 "Hg9 mi
6:53 PM82 °FPassing clouds.13 mph60%29.80 "Hg9 mi
5:53 PM83 °FSunny.16 mph61%29.80 "Hg9 mi
4:53 PM84 °FPassing clouds.14 mph57%29.82 "Hg9 mi
Weather by CustomWeather, © 2015

See weather overviewHow to use our weather pages